{"data":{"norad_id":53020,"epoch":"2026-09-19T16:07:44.152320Z","epoch_age_seconds":140975,"freshness":"FRESH","line1":"1 53020U 22076AL  26262.67203880  .00000119  00000+0  14306-4 0  9997","line2":"2 53020  53.1608 285.9632 0001121  81.9128 278.2002 15.35403555232367","mean_motion":15.35403555,"eccentricity":0.0001121,"inclination_deg":53.1608,"raan_deg":285.9632,"arg_perigee_deg":81.9128,"mean_anomaly_deg":278.2002,"bstar":1.4306e-5,"rev_number":23236,"period_min":93.786418255362,"perigee_km":458.95556401557,"apogee_km":460.4886120231,"semimajor_km":6837.8590880193,"source":"CELESTRAK","updated_at":"2026-09-20T09:00:40.145984Z"}}